Hourly Data Report for October 19, 2016

All times are specified in Local Standard Time (LST). Add 1 hour to adjust for Daylight Saving Time where and when it is observed.

IQALUIT CLIMATE
NUNAVUT

63°44'50.000" N
68°32'40.000" W
33.50 m
2402592
71321
XFB

Download Data

Hourly Data (October 2016)
Hourly Data Report for October 19, 2016
Temp Definition
°C
Dew Point Temp Definition
°C
Rel Hum Definition
%
Wind Dir Definition
10's deg

Wind Spd Definition
km/h
Visibility Definition
km
Stn Press Definition
kPa
Hmdx Definition


Wind Chill Definition


Weather Definition


TIME
00:00 -8.2 -12.9 69 36 13   101.70   -14 LegendNANA
01:00 -10.3 -14.4 72 36 16   101.68   -17 LegendNANA
02:00 -10.8 -15.4 69 2 21   101.66   -19 LegendNANA
03:00 -11.4 -16.3 67 2 24   101.65   -20 LegendNANA
04:00 -12.2 -17.6 64 2 23   101.65   -21 LegendNANA
05:00 -14.2 -18.2 72 29 19   101.62   -23 LegendNANA
06:00 -15.0 -18.5 75 32 20   101.65   -24 LegendNANA
07:00 -15.4 -18.9 74 33 18   101.63   -24 LegendNANA
08:00 -14.9 -18.7 73 31 12   101.65   -22 LegendNANA
09:00 -14.6 -18.5 72 32 15   101.62   -22 LegendNANA
10:00 -13.0 -16.8 73 28 9   101.63   -18 LegendNANA
11:00 -12.0 -15.7 74 31 13   101.62   -19 LegendNANA
12:00 -11.7 -14.9 77 30 14   101.60   -19 LegendNANA
13:00 -11.4 -14.5 78 32 24   101.62   -20 LegendNANA
14:00 -11.4 -14.4 79 32 22   101.64   -20 LegendNANA
15:00 -11.1 -13.8 81 32 18   101.69   -19 LegendNANA
16:00 -11.2 -13.5 83 33 18   101.71   -19 LegendNANA
17:00 -12.4 -14.7 83 31 10   101.77   -18 LegendNANA
18:00 -13.7 -15.5 86 33 16   101.82   -22 LegendNANA
19:00 -14.4 -16.6 84 33 17   101.85   -23 LegendNANA
20:00 -13.3 -15.5 83 35 7   101.86   -18 LegendNANA
21:00 -14.5 -16.6 84 36 3   101.86   -17 LegendNANA
22:00 -13.1 -15.2 84 34 8   101.84   -18 LegendNANA
23:00 -13.2 -15.2 85 33 13   101.82   -20 LegendNANA

Notes on Data Quality.

Legend

  • E = Estimated
  • M = Missing
  • NA = Not Available
  • ‡ = Partner data that is not subject to review by the National Climate Archives
Date modified: